Miscellaneous Local Product
Issued by NWS North Platte, NE

Home | Current Version | Previous Version | Graphics & Text | Print | Product List | Glossary On
Versions: 1 2 3 4 5 6 7 8 9 10 11 12 13 14 15 16 17 18 19 20 21 22 23 24 25 26 27 28 29 30 31 32 33 34 35 36 37 38 39 40 41 42 43 44 45 46 47 48 49 50
725
AXUS43 KLBF 240810
MISLBF


WESTERN AND NORTH CENTRAL NEBRASKA HOURLY WEATHER ROUNDUP
NATIONAL WEATHER SERVICE NORTH PLATTE NE
300 AM CDT SUN JUL 24 2016

NOTE: "FAIR" INDICATES FEW OR NO CLOUDS BELOW 12,000 FEET WITH NO
SIGNIFICANT WEATHER AND/OR OBSTRUCTIONS TO VISIBILITY.

NOTE: STATIONS NOT REPORTING VARIABLES SUCH AS SKY/WEATHER OR
PRESSURE ARE PROVIDED BY RAWS AND APRS NETWORKS AND ARE NOT UNDER
NATIONAL WEATHER SERVICE QUALITY CONTROL.

...OBSERVATIONS IN AND NEAR THE EASTERN PANHANDLE OF NEBRASKA...

CITY           SKY/WX    TMP DP  RH WIND       PRES   REMARKS
PINE RIDGE     CLEAR     60  52  74 N7        30.08R
CHADRON        CLEAR     61  52  72 CALM      30.07R
ALLIANCE       CLEAR     62  56  80 CALM      30.09S
SIDNEY         PTCLDY    66  54  65 NE9       30.08F
CRESCENT LAKE    N/A     69  59  69 E6          N/A
$$

...OBSERVATIONS IN NORTHERN NEBRASKA AND FAR SOUTHERN SOUTH DAKOTA...

CITY           SKY/WX    TMP DP  RH WIND       PRES   REMARKS
WINNER         FAIR      68  57  68 CALM      29.99S
VALENTINE      CLOUDY    65  56  72 NE5       30.00F
THEDFORD       CLOUDY    70  58  65 CALM      30.03S
AINSWORTH      MOCLDY    65  60  82 W3        30.01S
O`NEILL        PTCLDY    69  64  84 N8        29.97S
ORD            CLEAR     72  63  73 N7        29.95R
BROKEN BOW     CLEAR     71  60  68 N8        29.98R
VALENTINE NWR    N/A     69  58  68 CALM        N/A
BUTTE            N/A     69  62  78 CALM        N/A
HALSEY           N/A     69  56  62 CALM        N/A
EWING            N/A     72  66  82 N3          N/A
$$

...OBSERVATIONS IN SOUTHWEST NEBRASKA AND FAR NORTHEAST COLORADO...

CITY           SKY/WX    TMP DP  RH WIND       PRES   REMARKS
HOLYOKE        FAIR      79  54  41 W9        30.03R
IMPERIAL       CLOUDY    76  59  55 E9        30.00F
OGALLALA       CLOUDY    76  58  54 NE8       30.04F
NORTH PLATTE   CLOUDY    71  58  63 CALM      30.01R
MCCOOK         CLOUDY    74  63  68 N8        29.96S
LEXINGTON      PTCLDY    73  62  67 N13       29.95F
STAPLETON        N/A     69  58  68 CALM        N/A
GOTHENBURG       N/A     75  58  54 N5          N/A
CALLAWAY         N/A     72  61  67 N3          N/A
$$

...OBSERVATIONS IN CENTRAL LINCOLN COUNTY AREA...

CITY           SKY/WX    TMP DP  RH WIND       PRES   REMARKS
N.P. AIRPORT   CLOUDY    71  58  63 CALM      30.01R
N.P. DOWNTOWN    N/A     74  59  58 NE7         N/A
N.P. HILLCREST   N/A     72  59  62 NE17        N/A
$$

...SOME OBSERVATIONS FROM AROUND THE REGION...

CITY           SKY/WX    TMP DP  RH WIND       PRES   REMARKS
DENVER         PTCLDY    64  51  62 E8        30.17S
LARAMIE        CLOUDY    60  47  61 S10       30.27R
CHEYENNE       CLOUDY    69  49  48 W12       30.25R
SCOTTSBLUFF    CLEAR     65  56  72 E7        30.07S
RAPID CITY     CLEAR     61  43  51 NW10      30.11R
BISMARCK       CLEAR     63  57  81 W6        29.95S
PIERRE         CLEAR     63  58  83 NW10      29.98R
SIOUX FALLS    CLEAR     72  67  84 N7        29.89R
OMAHA          CLEAR     80  74  81 S7        29.83S
GRAND ISLAND   CLEAR     74  70  87 NE6       29.92R
KANSAS CITY    PTCLDY    82  71  69 S9        29.87S
WICHITA        PTCLDY    79  67  66 S7        29.89S
OKLAHOMA CITY  PTCLDY    75  70  84 SE8       29.92S
DALLAS         CLEAR     83  72  69 SE5       29.90S
AMARILLO       CLEAR     77  56  48 S13       30.03S
DODGE CITY     LGT RAIN  75  66  73 SW14G29   29.97R
HAYS           CLOUDY    84  59  42 S15       29.87S
GOODLAND       CLOUDY    73  57  57 NW7       30.03R
$$




USA.gov is the U.S. government's official web portal to all federal, state and local government web resources and services.